DW8984 Weather Reports


time (UTC)temp
C
wind
direction
speed
KPH
gust
KPH
rain 1hr
cm
rain 24hr
cm
rain mn
cm
humidity
%
barometer
mb
20260506073045 11 129 0.0 0.0 0.00 0.00 0.00 90 1018.8
20260506071539 11 129 0.0 0.0 0.00 0.00 0.00 91 1018.7
20260506061531 12 138 0.0 8.0 0.00 0.00 0.00 86 1018.2
20260506044549 13 132 0.0 8.0 0.00 0.00 0.00 83 1017.1
20260506043021 13 110 1.6 16.1 0.00 0.00 0.00 82 1017.1
20260506041520 13 136 0.0 11.3 0.00 0.00 0.00 81 1016.8
20260506040016 13 136 1.6 19.3 0.00 0.00 0.00 80 1016.7
20260506034532 13 125 0.0 9.7 0.00 0.00 0.00 79 1016.3
20260506033012 14 148 1.6 16.1 0.00 0.00 0.00 78 1016.1
20260506031512 15 124 4.8 14.5 0.00 0.00 0.00 76 1015.7
20260506030011 15 131 3.2 19.3 0.00 0.00 0.00 75 1015.4
20260506024510 16 126 1.6 11.3 0.00 0.00 0.00 74 1014.9
20260506023009 16 150 1.6 19.3 0.00 0.00 0.00 72 1014.7
20260506021509 17 150 0.0 11.3 0.00 0.00 0.00 71 1014.4
20260506020009 17 127 1.6 9.7 0.00 0.00 0.00 70 1014.1
20260506014506 18 95 0.0 20.9 0.00 0.00 0.00 65 1014.0
20260506013006 20 103 0.0 12.9 0.00 0.00 0.00 63 1014.0
20260506011510 20 158 3.2 12.9 0.00 0.00 0.00 62 1013.7
20260506010008 21 135 0.0 11.3 0.00 0.00 0.00 62 1013.6
20260506004504 21 174 0.0 6.4 0.00 0.00 0.00 60 1013.5
20260506003003 22 160 0.0 12.9 0.00 0.00 0.00 61 1013.2
20260506001502 22 162 0.0 12.9 0.00 0.00 0.00 59 1013.1
20260506000059 23 134 0.0 9.7 0.00 0.00 0.00 57 1012.9
20260505234627 23 163 0.0 12.9 0.00 0.00 0.00 57 1012.7
20260505233054 23 125 0.0 11.3 0.00 0.00 0.00 58 1012.8
20260505231551 24 153 0.0 8.0 0.00 0.00 0.00 56 1012.7
20260505230049 25 126 0.0 6.4 0.00 0.00 0.00 56 1012.7
20260505224547 25 163 0.0 12.9 0.00 0.00 0.00 56 1012.9
20260505223044 25 131 0.0 3.2 0.00 0.00 0.00 57 1012.8
20260505221541 25 180 0.0 1.6 0.00 0.00 0.00 58 1012.8
20260505220054 25 203 0.0 3.2 0.00 0.00 0.00 59 1012.9
20260505214538 23 155 0.0 3.2 0.00 0.00 0.00 59 1013.1
20260505213136 23 155 0.0 8.0 0.00 0.00 0.00 61 1013.3
20260505211529 22 122 0.0 6.4 0.00 0.00 0.00 61 1013.4
20260505210025 22 160 0.0 12.9 0.00 0.00 0.00 62 1013.4
20260505204522 22 145 0.0 8.0 0.00 0.00 0.00 62 1013.7
20260505203019 21 179 0.0 4.8 0.00 0.00 0.00 60 1013.7
20260505201522 21 139 0.0 1.6 0.00 0.00 0.00 64 1013.9
20260505200012 20 200 0.0 3.2 0.00 0.00 0.00 67 1014.1
20260505194524 20 144 0.0 8.0 0.00 0.00 0.00 65 1014.4
20260505193024 20 125 0.0 9.7 0.00 0.00 0.00 66 1014.6
20260505191504 19 206 0.0 8.0 0.00 0.00 0.00 68 1014.9
20260505190003 18 142 0.0 4.8 0.00 0.00 0.00 66 1014.9
20260505184611 18 144 0.0 1.6 0.00 0.00 0.00 68 1015.1
20260505183058 18 142 0.0 8.0 0.00 0.00 0.00 70 1015.5
20260505181559 17 131 0.0 0.0 0.00 0.00 0.00 70 1015.6
20260505174608 17 127 0.0 1.6 0.00 0.00 0.00 71 1015.8
20260505173048 16 165 0.0 0.0 0.00 0.00 0.00 75 1015.8
20260505171545 15 139 0.0 0.0 0.00 0.00 0.00 78 1016.0
20260505170057 14 142 0.0 0.0 0.00 0.00 0.00 79 1016.1
20260505164541 13 153 0.0 0.0 0.00 0.00 0.00 79 1016.2
20260505163040 13 134 0.0 0.0 0.00 0.00 0.00 79 1016.1
20260505161537 13 140 0.0 1.6 0.00 0.00 0.00 81 1016.2
20260505153038 13 141 0.0 0.0 0.00 0.00 0.00 84 1016.0
20260505151533 12 141 0.0 0.0 0.00 0.00 0.00 84 1015.8
20260505124518 11 129 0.0 0.0 0.00 0.00 0.00 87 1014.8
20260505123016 11 128 0.0 0.0 0.00 0.00 0.00 87 1014.8
20260505121516 12 127 0.0 0.0 0.00 0.00 0.00 86 1014.7
20260505120014 12 127 0.0 0.0 0.00 0.03 0.00 86 1014.8
20260505114512 12 127 0.0 0.0 0.00 0.03 0.00 87 1014.7
20260505113012 12 127 0.0 0.0 0.00 0.03 0.00 86 1014.7
20260505111510 12 127 0.0 0.0 0.00 0.03 0.00 86 1014.7
20260505101505 12 132 0.0 0.0 0.00 0.08 0.00 85 1014.7
20260505100004 12 125 0.0 6.4 0.00 0.08 0.00 84 1014.7
20260505094501 12 132 0.0 0.0 0.00 0.08 0.00 84 1014.7
20260505093059 12 126 0.0 0.0 0.00 0.08 0.00 84 1014.9
20260505091557 12 129 0.0 1.6 0.00 0.08 0.00 84 1015.0
20260505090059 12 129 0.0 1.6 0.00 0.08 0.00 84 1015.1
20260505084552 12 127 0.0 0.0 0.00 0.08 0.00 84 1014.8
20260505083101 12 133 0.0 3.2 0.00 0.08 0.00 83 1014.9
20260505081553 12 141 0.0 3.2 0.00 0.08 0.00 83 1015.1